Weather in Shaberdino

Russia / Udmurt Republic     56°54′57″N   52°59′59″E
В апреле 2022 года жителям России запретили посещать сайт meteo.paraplan.net по решению Генеральной прокуратуры. Аудитория сайта уменьшилась в 10 раз. Владельцы сайта не видят смысла в поддержке погодного сервера в таких условиях. Сайт будет закрыт в октябре.
temp.,
°C
wind,
m/s
gust,
m/s
humid.,
%
clouds,
%
prec.,
mm/h
press.,
hPa
HPBL,
m
3 october, mon
mon301:00+11s41384100 0.1 1015554
04:00+11s41282100 0.1 1016527
07:00+10s41292100 3.1 1016514
10:00+11s4128288 3.6 1018541
13:00+13s4117288 0.1 1019622
16:00+16s4105780 0.1 1019764
19:00+12s31364100 0.0 1021369
22:00+11s4145897 0.0 1022442
4 october, tue
tue401:00+9s310636 0.0 1023296
04:00+8s3106378 0.0 1024264
07:00+7sse2966100 0.0 1025205
10:00+11sse3951100 0.0 1026377
13:00+12sse41046100 0.0 1027529
16:00+12sse4946100 0.0 1027510
19:00+11sse3104673 0.0 1028337
22:00+8sse31050100 0.0 1028274
5 october, wed
wed501:00+8sse31049100 0.0 1028296
04:00+7sse2552100 0.0 1027105
07:00+7s3952100 0.0 1027319
10:00+8sse41163100 0.0 1026624
13:00+10s31049100 0.0 1025530
16:00+10sse41044100 0.0 1024463
19:00+9sse41251100 0.0 1023642
22:00+9s41252100 0.0 1022731
6 october, thu
thu601:00+6sse41085100 1.8 1020570
04:00+6sse4993100 3.5 1018595
07:00+6sse4891100 0.6 1016473
10:00+7se3791100 1.0 1015343
13:00+8sse2694100 0.5 1013448
16:00+8ssw1297100 2.6 1013120
19:00+8sw139094 0.7 101387
22:00+7wsw2692100 0.9 1012262
7 october, fri
fri701:00+6wsw269265 0.0 1012234
04:00+3wsw269715 0.0 1012171
07:00+6sw2996100 0.1 1011471
10:00+7wsw4980100 0.6 1011642
13:00+8sw4774100 0.0 10101057
16:00+7sw4993100 0.9 1009799
19:00+7wsw3992100 0.0 1010830
22:00+7wsw41193100 0.1 1010551